Location: Bailen
(14.1842°N, 120.7958°E)
Time: 20:33:19
(UTC+00:00)

Daily predictions for brighter satellites

Satellite Brightness Start Highest point End
(mag) Time Altitude Azimuth Time Altitude Azimuth Time Altitude Azimuth
Resurs 01 Rocket 4.2 12:11:03 10° SW 12:13:58 18° W 12:16:53 10° WNW
H-10 deb 4.1 19:42:20 42° SSE 19:42:20 42° SSE 19:55:43 10° E
Cosmos 1943 4.4 19:51:12 38° E 19:51:12 38° E 19:55:25 10° SE
NOSS 3-4 (A) 4.2 19:58:04 64° NNE 19:59:15 72° ENE 20:08:01 10° SSE
NOSS 3-4 (C) 4.2 19:58:10 63° NNE 19:59:25 71° ENE 20:08:09 10° SSE
Atlas Centaur 2 2.9 20:11:02 45° NE 20:11:02 45° NE 20:15:29 10° ENE
USA 234 3.7 20:09:26 10° NE 20:15:52 59° SE 20:22:16 10° SSW
SL-16 R/B 2.6 20:14:05 10° S 20:19:26 62° SSW 20:19:26 62° SSW
ATLAS 5 CENTAUR R/B 4.2 20:25:10 18° SSW 20:25:10 18° SSW 20:27:20 10° SSW
Cosmos 2056 Rocket 3.6 20:24:12 66° SSE 20:24:12 66° SSE 20:28:41 10° SSE
Cosmos 1709 Rocket 3.8 20:24:58 10° S 20:31:06 88° W 20:37:11 10° N
Meteor 1-11 Rocket 3.9 20:25:35 10° SSW 20:30:38 60° SW 20:30:38 60° SW
UNK 4.2 20:27:46 10° SSE 20:32:15 58° ENE 20:33:13 47° NNE
In-Cosmos 22 4.1 20:33:37 68° WSW 20:33:37 68° WSW 20:38:55 10° S
IRS-1D 3.6 20:39:58 10° NNE 20:45:17 80° ESE 20:50:33 10° S
GPS 2-12 Rocket1 2.7 20:46:23 88° NW 20:46:24 88° NNW 20:50:47 10° ENE
Nadezhda 1 Rocket 3.9 20:44:55 12° N 20:50:47 86° W 20:57:07 10° S
Cosmos 1371 Rocket 4.2 20:51:53 45° WSW 20:51:53 45° WSW 20:56:33 10° S
Cosmos 2278 Rocket 3.2 20:48:33 10° S 20:53:56 47° ESE 20:59:18 10° NNE
Cosmos 1331 Rocket 4.2 21:01:55 10° N 21:07:07 72° ENE 21:12:20 10° SSE
Cosmos 1603 3.6 21:03:46 20° NNW 21:07:43 76° WSW 21:13:20 10° S
RESURS DK-1 3.4 21:06:53 10° N 21:10:38 41° ENE 21:14:22 10° SE
Okean 3 Rocket 3.4 21:09:23 10° S 21:13:42 78° W 21:18:03 10° N
CZ-3A R/B 4.3 21:07:33 21° WNW 21:19:39 43° NNW 21:24:13 10° ENE
MAQSAT/ARIANE V 4.0 21:17:36 13° WSW 21:20:59 47° SSE 21:40:23 10° E
SKYMED 2 4.2 21:16:51 10° SSE 21:21:05 58° ENE 21:25:19 10° N
Ariane H10+ 2.9 21:19:01 13° SW 21:21:06 18° SSW 21:23:10 10° SSE
Cosmos 1110 Rocket 3.9 21:16:26 11° NNW 21:21:19 70° WSW 21:26:27 10° S
NOAA 12 4.5 21:17:43 10° N 21:22:31 38° WNW 21:27:20 10° SW
Cosmos 2184 Rocket 4.3 21:17:41 10° S 21:23:55 70° E 21:30:05 10° N
Cosmos 1805 Rocket 3.9 21:21:32 10° S 21:25:54 70° E 21:30:17 10° N
Cosmos 1943 Rocket 2.1 21:23:19 10° SSW 21:28:46 61° WNW 21:34:11 10° N
COSMO-SKYMED 1 3.9 21:25:23 10° SE 21:29:10 38° ENE 21:32:58 10° N
Cosmos 1452 Rocket 3.5 21:24:10 10° NNW 21:29:25 90° ENE 21:34:40 10° SSE
Yuri Rocket 3.9 21:27:11 17° NW 21:29:51 35° NNE 21:33:51 10° E
BlueWalker 3 4.5 21:28:36 10° NNE 21:30:27 14° NE 21:32:19 10° E
Cosmos 1703 3.1 21:29:41 10° N 21:32:56 67° E 21:36:10 10° S
Tiangong -0.4 21:30:37 10° SSW 21:33:31 34° SE 21:36:27 10° ENE
Palapa B4 Rocket 3.3 21:31:01 11° WSW 21:34:44 66° SSE 21:40:01 10° E
Cosmos 1500 Rocket 3.4 21:30:53 10° S 21:35:10 88° W 21:39:29 10° N
Hubble Space Telescope 1.7 21:33:48 15° NW 21:36:26 33° NNE 21:39:51 10° E
Lacrosse 4 Rocket 2.9 21:32:41 10° S 21:36:28 39° ESE 21:40:12 10° NE
SL-12 R/B(2) 4.1 21:33:31 10° SW 21:40:32 54° WNW 21:48:26 10° NNE
Cosmos 1408 Rocket 3.6 21:37:23 10° SSW 21:41:42 58° W 21:45:58 10° N
ASC 2 Rocket 4.1 21:40:40 14° WNW 21:43:44 28° NNW 21:47:16 10° NE
GMS 1 Rocket B 4.5 21:42:49 14° WNW 21:46:18 85° SSW 21:51:15 10° ESE
Meteor 2-10 Rocket 3.4 21:42:25 10° SSW 21:47:20 63° W 21:52:19 10° N
Meteor 1-23 Rocket 4.2 21:43:35 10° NNW 21:49:06 68° W 21:54:40 10° S
Sich 1 3.9 21:46:17 10° SW 21:49:52 26° W 21:53:26 10° NNW
Cosmos 1758 3.3 21:46:13 10° S 21:49:56 77° E 21:53:39 10° N
Cosmos 2074 Rocket 4.1 21:45:52 10° SSW 21:52:01 58° W 21:58:12 10° N
SeaSat 1 3.0 21:48:29 10° N 21:52:55 36° WNW 21:57:21 10° SW
Cosmos 1140 Rocket 3.5 21:50:22 10° SSW 21:55:22 60° WNW 22:00:23 10° N
Meteor 1-21 4.3 21:52:23 10° NNW 21:57:57 62° W 22:03:36 10° S
ARIANE 5 R/B 4.2 21:55:12 10° SW 21:58:14 26° SSE 22:07:16 10° E
Atlas Centaur 2 3.4 21:53:12 10° WNW 21:58:19 30° NNW 22:04:25 10° NE
USA 234 4.3 21:53:30 10° N 21:58:28 24° NW 22:03:26 10° W
EPKM 1.9 21:58:44 10° W 22:01:00 39° SSW 22:03:03 10° SE
Cosmos 921 Rocket 4.1 21:59:58 10° SW 22:03:28 23° WNW 22:06:57 10° NNW
CORIOLIS 4.2 22:02:15 10° N 22:07:41 84° WNW 22:13:05 10° SSW
